SCP
0 0 0 0 0 -0 0 0 0 -0 0 -0 0 -0 -0 -0 0 -0 0 0 0 0 0 0 -0 0 1 2 3 4 3 2 1 1 1 1 0 0 0 0 0 0 0 0
0 0 0 0 0 0 -0 0 0 0 0 0 0 0 0 -0 -0 0 0 0 0 0 0 -0 -0 0 0 1 2 2 2 1 1 1 0 0 0 0 0 0 0 0 0 0
-0 0 0 0 0 0 0 0 0 0 0 0 0 0 0 -0 -0 -0 0 0 0 0 0 0 -0 -0 -0 0 1 1 1 1 1 0 0 0 0 0 0 0 0 0 0 0
0 0 0 0 0 0 0 0 0 0 0 0 -0 0 0 -0 -0 -0 -0 -0 0 0 0 0 -0 -0 0 0 0 1 1 1 0 0 0 0 0 0 0 0 0 0 0 0
0 0 0 0 0 0 0 0 0 0 0 -0 -0 0 -0 -0 -0 0 -0 -0 0 0 0 0 -0 -0 0 0 0 1 1 0 0 0 0 0 0 0 0 0 0 0 0 0
0 0 0 0 0 0 0 0 0 0 0 -0 0 -0 -0 0 0 0 -0 -0 -0 0 0 0 -0 -0 0 0 0 0 0 0 0 0 0 0 0 0 0 0 0 0 0 0
0 0 0 0 0 0 0 0 0 0 0 0 0 -0 -0 0 0 0 -0 -0 -0 -0 0 0 0 -0 -0 -0 0 0 0 0 0 0 0 0 0 0 0 0 0 0 0 0
0 0 0 0 0 0 0 0 0 0 0 0 0 -0 -0 0 -0 0 -0 -0 -0 -0 -0 0 0 -0 -0 0 0 0 0 0 0 0 0 0 0 0 0 0 0 0 0 0
0 0 0 0 0 0 0 0 0 0 0 -0 0 -0 -0 0 -0 0 -0 0 -0 -0 -0 0 0 0 -0 0 0 0 0 0 0 0 0 0 0 0 0 0 0 0 0 0
-0 0 -0 -0 0 0 0 0 0 0 0 -0 -0 0 0 -0 0 0 0 0 0 -0 0 0 0 0 -0 -0 -0 0 0 0 0 0 0 0 0 0 0 0 0 0 0 0
0 -0 -0 0 0 0 0 0 0 0 -0 -0 0 -0 -0 -0 0 0 0 0 0 0 -0 -0 0 0 0 0 0 0 0 0 0 0 0 0 0 0 0 0 0 0 0 0
-0 -0 -0 0 0 0 0 0 0 -0 -0 -0 -0 0 0 0 0 0 0 -0 -0 -0 -0 -0 0 0 0 0 0 0 0 0 0 0 0 0 -0 -0 -0 -0 0 0 -0 -0
-0 0 0 0 0 0 0 0 0 -0 -0 -0 0 -0 0 0 0 0 0 0 0 0 -0 -0 0 -0 0 0 0 0 0 0 0 0 0 0 -0 -0 -0 -0 -0 -0 -0 -0
0 0 0 0 0 0 0 0 0 0 -0 0 -0 0 0 0 0 0 0 0 0 0 0 0 0 0 0 0 0 0 0 0 0 0 0 0 -0 -0 -0 -0 -0 0 -0 -0
0 0 0 0 0 0 0 -0 -0 0 0 0 0 0 0 0 0 0 0 0 0 0 0 -0 0 0 0 0 0 0 0 0 0 -0 0 0 -0 -0 -0 -0 -0 0 0 0
0 0 0 0 0 0 0 0 -0 -0 -0 0 0 0 0 0 0 0 0 0 0 0 0 0 0 0 0 0 0 0 0 0 0 0 0 0 0 -0 -0 0 0 0 0 0
0 0 0 -0 -0 -0 0 0 -0 -0 -0 0 0 0 0 0 0 0 0 0 0 0 0 0 0 0 0 0 0 0 0 0 0 -0 -0 0 0 -0 -0 -0 -0 -0 0 -0
0 0 0 0 0 0 0 0 0 -0 0 0 0 0 0 0 0 0 0 0 0 0 0 0 0 0 0 0 0 0 0 0 -0 -0 -0 -0 0 -0 -0 -0 0 0 -0 -0
0 0 -0 -0 -0 -0 -0 0 0 0 0 0 0 0 0 0 0 0 0 0 0 0 0 0 0 0 0 0 0 0 0 0 0 -0 0 0 -0 0 -0 -0 0 0 -0 -0
0 -0 -0 -0 -0 -0 -0 0 0 0 0 0 0 0 0 0 0 0 0 0 0 0 0 0 0 0 0 0 0 0 0 0 0 0 0 0 0 0 0 -0 -0 -0 -0 0
0 -0 -0 -0 -0 -0 -0 -0 0 0 0 0 0 0 0 0 0 0 0 0 0 0 0 0 0 0 0 0 0 0 0 0 0 0 0 0 0 0 0 0 0 0 0 0
0 -0 -0 -0 0 0 -0 0 -0 0 0 0 0 0 0 0 0 0 0 0 0 0 0 0 0 0 0 0 0 0 0 0 0 0 0 -0 0 0 0 0 0 0 0 0
0 0 -0 -0 -0 0 0 0 0 0 0 0 0 0 0 0 0 0 0 0 0 0 0 0 0 0 0 0 0 0 0 0 0 0 0 0 -0 -0 0 0 0 0 0 0
0 0 -0 -0 -0 -0 0 0 -0 0 0 0 0 0 0 0 0 0 0 0 0 -0 0 0 0 0 -0 0 0 0 0 0 0 0 0 0 0 0 0 0 0 0 0 0
0 0 0 -0 -0 -0 -0 -0 -0 0 0 0 0 0 0 0 0 0 0 0 0 0 -0 0 -0 -0 -0 0 0 0 0 0 0 0 0 -0 0 0 0 0 0 0 0 0
0 0 0 0 -0 -0 -0 -0 -0 -0 -0 -0 0 0 0 0 0 0 0 0 0 0 0 0 0 0 0 0 0 -0 0 0 0 0 0 0 0 0 0 0 0 0 0 0
0 0 0 0 0 -0 0 -0 -0 -0 -0 -0 -0 -0 0 0 0 0 0 0 0 0 0 0 0 0 0 0 0 0 0 0 0 0 0 0 0 0 0 0 0 0 0 0
Wind_Speed_500mb
24 32 32 38 41 36 33 33 17 29 14 19 17 22 24 27 26 37 56 45 83 76 69 38 56 39 20 45 48 61 59 52 50 50 52 58 60 56 56 57 53 48 46 41
30 28 32 37 33 30 33 32 10 14 21 10 23 37 34 31 26 37 45 61 64 69 62 64 65 40 17 40 59 59 51 55 58 62 65 63 59 57 55 54 53 47 41 38
33 11 24 20 9 3 5 13 10 14 9 10 14 25 28 44 42 42 52 57 60 68 77 67 61 49 29 40 53 56 59 61 68 65 63 57 56 54 55 53 51 40 39 39
9 8 6 7 5 5 7 20 16 17 19 15 25 40 45 48 48 35 52 63 73 74 79 76 47 22 11 52 25 58 62 68 67 59 56 57 57 56 52 48 43 40 40 35
4 6 14 11 8 8 2 17 18 15 19 23 45 42 49 32 27 65 62 61 64 62 67 67 50 31 26 43 52 65 69 63 55 60 62 56 58 55 51 48 45 39 35 38
2 4 10 10 6 12 7 12 12 15 18 25 31 21 27 47 48 78 74 60 60 61 61 56 58 61 36 46 45 70 69 60 65 57 59 63 59 56 51 45 40 38 39 35
11 9 13 8 13 11 3 12 15 31 40 43 21 37 83 76 68 74 67 59 57 55 57 50 57 40 52 61 63 68 59 65 62 58 55 52 50 50 49 45 42 38 37 33
5 9 13 18 9 10 11 26 32 43 53 60 68 79 87 74 55 77 64 64 50 53 54 45 44 24 47 18 57 60 66 69 64 57 51 47 43 44 41 41 40 39 37 35
11 11 13 24 29 36 51 45 67 38 34 44 61 75 76 68 67 56 62 56 52 51 50 41 36 31 29 19 27 67 71 68 65 58 50 47 44 45 40 43 44 44 43 39
11 8 16 46 50 37 38 43 32 35 32 46 67 69 68 68 62 60 61 56 52 49 44 39 31 12 56 37 65 72 70 68 56 49 53 43 39 37 41 44 45 45 42 40
12 18 37 35 35 63 47 34 40 50 51 57 74 67 53 60 64 63 60 55 46 40 44 40 44 41 16 38 75 71 69 63 54 49 46 44 40 39 35 32 34 39 39 36
11 29 31 37 54 17 27 45 58 53 60 50 57 65 55 58 60 58 57 54 46 44 40 38 43 5 18 46 82 79 74 63 57 45 51 46 44 43 34 28 27 25 23 24
40 44 49 55 18 29 44 45 46 49 45 42 48 49 54 56 53 51 51 49 52 51 40 36 31 46 26 53 86 77 70 64 55 50 46 44 39 40 43 38 30 25 29 26
39 50 45 15 18 36 31 34 45 49 39 40 38 41 38 39 39 44 44 40 42 42 42 30 16 34 25 64 81 70 62 56 54 54 48 40 38 40 42 45 42 37 32 28
37 13 14 20 27 33 44 40 48 49 42 36 31 29 23 11 13 12 27 34 33 35 23 22 44 50 26 61 77 65 55 58 56 55 49 41 36 37 39 40 40 40 41 34
24 13 18 29 37 35 43 43 49 48 40 33 32 23 17 10 3 5 5 9 15 17 23 33 63 49 29 49 76 60 59 55 57 52 47 42 34 35 42 39 41 43 38 31
15 25 28 33 38 41 35 40 49 42 33 27 29 21 18 13 10 15 23 25 30 36 32 46 42 66 25 53 74 62 57 49 51 51 45 42 37 41 42 44 43 40 32 26
19 16 21 27 32 35 35 45 47 36 28 26 24 18 17 21 20 22 28 45 68 66 51 51 65 48 47 73 71 55 55 49 49 45 47 47 42 40 39 41 44 42 40 40
13 19 34 40 33 32 40 48 45 35 29 23 24 23 17 19 21 23 32 49 57 70 73 51 54 34 64 80 78 57 48 53 43 40 44 48 50 44 40 41 47 49 50 51
17 32 47 45 34 39 35 35 34 36 33 26 21 25 20 22 25 29 48 63 62 58 43 47 25 44 71 74 67 58 52 53 45 30 48 54 54 55 52 49 54 53 53 50
25 34 45 46 36 37 35 40 36 41 44 41 40 41 37 32 30 33 37 49 46 48 43 36 29 46 50 67 60 54 50 48 39 27 39 60 66 61 60 54 53 58 60 55
25 32 46 47 40 38 40 46 49 50 57 62 60 47 46 49 49 45 38 38 34 32 40 26 19 31 35 31 44 45 43 41 40 40 50 68 75 69 70 66 68 66 65 57
16 25 39 46 42 40 41 49 53 57 56 54 56 61 64 63 59 59 56 43 45 43 36 26 13 3 9 16 31 41 43 47 44 45 52 65 72 78 78 77 75 73 71 60
8 18 28 37 38 36 44 45 51 58 60 59 58 55 58 65 69 65 59 52 51 41 42 37 26 23 16 18 22 25 29 41 45 52 55 65 71 71 71 74 72 68 60 58
4 13 20 26 33 38 35 41 39 44 52 62 70 74 75 71 75 65 62 61 59 57 50 47 48 42 42 37 35 38 40 43 50 54 58 62 65 68 71 73 72 67 60 53
3 8 16 19 24 32 34 28 36 46 51 54 59 61 62 69 73 75 77 77 73 73 74 66 60 59 58 56 51 45 42 42 45 49 57 60 67 68 70 73 71 71 70 65
8 9 8 10 18 20 24 27 27 27 30 45 53 52 50 53 64 73 80 84 85 83 83 83 80 81 79 75 71 67 64 64 61 61 65 74 76 74 75 77 81 79 74 71
Wind_Direction_500mb
246 259 272 274 278 272 259 255 241 275 234 255 261 268 280 273 315 331 316 334 299 303 324 351 351 317 270 232 213 197 192 191 198 194 186 184 191 195 183 174 177 174 173 178
286 271 263 283 282 268 259 264 279 269 274 227 288 304 307 296 310 306 300 296 309 328 0 357 2 342 289 207 189 189 195 196 189 183 180 181 183 176 168 165 168 171 178 185
270 330 307 284 262 142 330 291 265 267 244 269 278 289 306 305 299 298 298 307 324 337 351 355 355 344 292 220 206 190 190 186 174 172 167 168 172 168 167 174 172 177 181 192
288 14 263 253 161 233 237 272 251 290 270 279 285 296 301 297 278 293 319 325 331 340 344 357 355 7 122 222 247 193 178 174 163 162 166 163 162 163 165 166 172 182 185 190
260 204 285 292 192 175 182 284 254 254 279 284 292 306 291 306 305 318 315 321 325 333 338 343 349 360 256 249 245 190 173 166 162 168 165 166 161 164 167 170 175 186 193 186
290 248 252 238 170 167 143 271 216 218 258 279 299 292 286 300 314 320 320 315 320 324 328 343 351 338 275 258 219 180 163 168 166 168 166 164 168 174 172 176 179 186 181 185
231 237 275 220 157 181 76 262 194 217 255 263 266 261 287 297 302 314 314 309 313 319 315 334 351 341 277 268 185 167 168 169 162 158 159 165 172 174 174 180 183 183 184 189
220 218 273 156 152 195 217 291 267 281 275 266 275 282 284 290 307 310 306 303 301 308 311 327 352 338 231 229 159 155 159 159 159 157 156 162 165 166 176 184 188 186 188 186
215 229 243 223 235 274 284 278 288 276 289 284 280 281 284 293 305 298 299 299 290 299 309 322 348 311 245 199 190 165 165 163 157 154 161 167 179 178 181 186 186 184 185 186
344 284 333 316 284 281 293 261 281 282 288 293 283 282 287 296 293 293 295 295 297 299 308 319 333 261 226 252 192 170 164 160 159 161 163 169 175 181 181 179 181 183 184 187
259 288 323 315 310 300 295 278 284 296 303 303 287 287 285 287 287 289 290 290 296 303 299 310 321 309 226 168 176 165 164 159 160 160 160 159 164 165 171 177 190 191 193 194
279 291 280 277 292 293 304 302 303 298 296 286 296 300 294 287 285 285 284 287 288 287 286 303 321 250 117 161 166 161 156 155 153 151 155 153 149 147 151 156 168 187 196 189
291 301 291 302 259 326 325 330 322 309 306 299 299 303 296 285 278 284 286 282 277 280 281 299 308 194 223 169 165 163 160 158 156 157 153 157 158 157 153 156 163 175 177 179
304 286 294 273 317 331 333 328 335 327 318 314 308 306 318 281 273 276 286 285 280 277 280 290 245 206 179 177 168 164 159 165 162 163 170 167 172 176 171 166 165 164 167 171
304 285 303 330 336 351 340 334 336 330 332 326 325 332 349 347 310 283 279 283 279 270 248 212 183 214 158 177 169 159 155 163 170 172 172 168 171 174 175 173 173 168 165 172
307 317 333 343 349 345 349 342 341 334 336 337 331 349 352 1 81 154 208 255 222 186 187 191 198 194 161 179 172 156 160 171 175 173 173 171 162 169 172 174 172 170 174 177
314 341 348 354 356 349 340 344 340 333 334 338 341 354 4 23 81 108 109 107 110 119 157 162 176 184 202 186 173 162 166 173 173 179 178 172 169 161 164 167 169 165 159 157
359 12 13 358 354 353 357 348 350 346 347 352 356 3 27 45 57 82 104 112 96 92 123 178 205 217 200 193 175 170 171 181 177 179 186 184 182 169 157 162 161 155 146 139
23 15 1 0 2 3 1 353 357 7 10 19 32 33 32 61 77 86 103 121 104 86 91 129 164 179 174 181 179 173 174 180 179 196 202 198 191 186 162 160 161 157 151 148
27 14 8 7 13 13 18 11 15 24 32 43 63 65 77 77 87 93 102 106 97 77 85 108 165 161 166 179 177 175 182 179 188 178 178 192 200 193 176 170 160 156 156 160
20 25 22 17 24 24 33 31 32 45 48 58 65 68 69 77 84 101 102 107 113 124 125 138 65 91 137 160 168 167 174 176 182 175 172 183 188 186 179 170 159 162 168 166
14 26 33 32 36 40 42 46 50 56 59 63 62 70 78 79 82 88 100 97 104 129 136 149 47 57 73 116 146 154 157 159 162 161 165 170 178 177 179 174 168 170 174 175
10 31 43 44 44 52 52 52 54 57 56 56 58 64 69 71 78 83 82 80 97 109 121 155 132 93 46 105 117 129 138 142 143 145 156 160 171 180 175 173 173 174 175 174
338 42 48 51 47 55 58 58 60 60 66 66 68 70 75 75 79 80 83 88 91 99 107 113 126 131 128 117 127 134 126 136 143 146 154 158 162 167 166 164 163 168 168 162
22 40 60 53 49 53 55 53 64 72 71 73 74 71 73 77 78 81 85 87 90 94 96 106 110 110 106 108 115 130 138 140 141 144 149 151 150 151 152 154 152 148 146 147
131 69 48 72 75 67 63 62 66 68 72 77 77 76 78 81 82 86 89 91 92 96 95 94 94 100 102 102 102 102 108 125 134 136 137 138 138 136 135 133 135 133 130 126
4 184 116 80 95 88 80 73 77 70 61 70 76 69 73 85 91 95 94 92 93 94 95 97 98 98 99 100 100 102 104 105 107 111 113 115 120 118 116 117 115 119 117 113
Wind_Speed_850mb
24 32 32 38 41 36 33 33 17 29 14 19 17 22 24 27 26 37 56 45 83 76 69 38 56 39 20 45 48 61 59 52 50 50 52 58 60 56 56 57 53 48 46 41
30 28 32 37 33 30 33 32 10 14 21 10 23 37 34 31 26 37 45 61 64 69 62 64 65 40 17 40 59 59 51 55 58 62 65 63 59 57 55 54 53 47 41 38
33 11 24 20 9 3 5 13 10 14 9 10 14 25 28 44 42 42 52 57 60 68 77 67 61 49 29 40 53 56 59 61 68 65 63 57 56 54 55 53 51 40 39 39
9 8 6 7 5 5 7 20 16 17 19 15 25 40 45 48 48 35 52 63 73 74 79 76 47 22 11 52 25 58 62 68 67 59 56 57 57 56 52 48 43 40 40 35
4 6 14 11 8 8 2 17 18 15 19 23 45 42 49 32 27 65 62 61 64 62 67 67 50 31 26 43 52 65 69 63 55 60 62 56 58 55 51 48 45 39 35 38
2 4 10 10 6 12 7 12 12 15 18 25 31 21 27 47 48 78 74 60 60 61 61 56 58 61 36 46 45 70 69 60 65 57 59 63 59 56 51 45 40 38 39 35
11 9 13 8 13 11 3 12 15 31 40 43 21 37 83 76 68 74 67 59 57 55 57 50 57 40 52 61 63 68 59 65 62 58 55 52 50 50 49 45 42 38 37 33
5 9 13 18 9 10 11 26 32 43 53 60 68 79 87 74 55 77 64 64 50 53 54 45 44 24 47 18 57 60 66 69 64 57 51 47 43 44 41 41 40 39 37 35
11 11 13 24 29 36 51 45 67 38 34 44 61 75 76 68 67 56 62 56 52 51 50 41 36 31 29 19 27 67 71 68 65 58 50 47 44 45 40 43 44 44 43 39
11 8 16 46 50 37 38 43 32 35 32 46 67 69 68 68 62 60 61 56 52 49 44 39 31 12 56 37 65 72 70 68 56 49 53 43 39 37 41 44 45 45 42 40
12 18 37 35 35 63 47 34 40 50 51 57 74 67 53 60 64 63 60 55 46 40 44 40 44 41 16 38 75 71 69 63 54 49 46 44 40 39 35 32 34 39 39 36
11 29 31 37 54 17 27 45 58 53 60 50 57 65 55 58 60 58 57 54 46 44 40 38 43 5 18 46 82 79 74 63 57 45 51 46 44 43 34 28 27 25 23 24
40 44 49 55 18 29 44 45 46 49 45 42 48 49 54 56 53 51 51 49 52 51 40 36 31 46 26 53 86 77 70 64 55 50 46 44 39 40 43 38 30 25 29 26
39 50 45 15 18 36 31 34 45 49 39 40 38 41 38 39 39 44 44 40 42 42 42 30 16 34 25 64 81 70 62 56 54 54 48 40 38 40 42 45 42 37 32 28
37 13 14 20 27 33 44 40 48 49 42 36 31 29 23 11 13 12 27 34 33 35 23 22 44 50 26 61 77 65 55 58 56 55 49 41 36 37 39 40 40 40 41 34
24 13 18 29 37 35 43 43 49 48 40 33 32 23 17 10 3 5 5 9 15 17 23 33 63 49 29 49 76 60 59 55 57 52 47 42 34 35 42 39 41 43 38 31
15 25 28 33 38 41 35 40 49 42 33 27 29 21 18 13 10 15 23 25 30 36 32 46 42 66 25 53 74 62 57 49 51 51 45 42 37 41 42 44 43 40 32 26
19 16 21 27 32 35 35 45 47 36 28 26 24 18 17 21 20 22 28 45 68 66 51 51 65 48 47 73 71 55 55 49 49 45 47 47 42 40 39 41 44 42 40 40
13 19 34 40 33 32 40 48 45 35 29 23 24 23 17 19 21 23 32 49 57 70 73 51 54 34 64 80 78 57 48 53 43 40 44 48 50 44 40 41 47 49 50 51
17 32 47 45 34 39 35 35 34 36 33 26 21 25 20 22 25 29 48 63 62 58 43 47 25 44 71 74 67 58 52 53 45 30 48 54 54 55 52 49 54 53 53 50
25 34 45 46 36 37 35 40 36 41 44 41 40 41 37 32 30 33 37 49 46 48 43 36 29 46 50 67 60 54 50 48 39 27 39 60 66 61 60 54 53 58 60 55
25 32 46 47 40 38 40 46 49 50 57 62 60 47 46 49 49 45 38 38 34 32 40 26 19 31 35 31 44 45 43 41 40 40 50 68 75 69 70 66 68 66 65 57
16 25 39 46 42 40 41 49 53 57 56 54 56 61 64 63 59 59 56 43 45 43 36 26 13 3 9 16 31 41 43 47 44 45 52 65 72 78 78 77 75 73 71 60
8 18 28 37 38 36 44 45 51 58 60 59 58 55 58 65 69 65 59 52 51 41 42 37 26 23 16 18 22 25 29 41 45 52 55 65 71 71 71 74 72 68 60 58
4 13 20 26 33 38 35 41 39 44 52 62 70 74 75 71 75 65 62 61 59 57 50 47 48 42 42 37 35 38 40 43 50 54 58 62 65 68 71 73 72 67 60 53
3 8 16 19 24 32 34 28 36 46 51 54 59 61 62 69 73 75 77 77 73 73 74 66 60 59 58 56 51 45 42 42 45 49 57 60 67 68 70 73 71 71 70 65
8 9 8 10 18 20 24 27 27 27 30 45 53 52 50 53 64 73 80 84 85 83 83 83 80 81 79 75 71 67 64 64 61 61 65 74 76 74 75 77 81 79 74 71
Wind_Direction_850mb
246 259 272 274 278 272 259 255 241 275 234 255 261 268 280 273 315 331 316 334 299 303 324 351 351 317 270 232 213 197 192 191 198 194 186 184 191 195 183 174 177 174 173 178
286 271 263 283 282 268 259 264 279 269 274 227 288 304 307 296 310 306 300 296 309 328 0 357 2 342 289 207 189 189 195 196 189 183 180 181 183 176 168 165 168 171 178 185
270 330 307 284 262 142 330 291 265 267 244 269 278 289 306 305 299 298 298 307 324 337 351 355 355 344 292 220 206 190 190 186 174 172 167 168 172 168 167 174 172 177 181 192
288 14 263 253 161 233 237 272 251 290 270 279 285 296 301 297 278 293 319 325 331 340 344 357 355 7 122 222 247 193 178 174 163 162 166 163 162 163 165 166 172 182 185 190
260 204 285 292 192 175 182 284 254 254 279 284 292 306 291 306 305 318 315 321 325 333 338 343 349 360 256 249 245 190 173 166 162 168 165 166 161 164 167 170 175 186 193 186
290 248 252 238 170 167 143 271 216 218 258 279 299 292 286 300 314 320 320 315 320 324 328 343 351 338 275 258 219 180 163 168 166 168 166 164 168 174 172 176 179 186 181 185
231 237 275 220 157 181 76 262 194 217 255 263 266 261 287 297 302 314 314 309 313 319 315 334 351 341 277 268 185 167 168 169 162 158 159 165 172 174 174 180 183 183 184 189
220 218 273 156 152 195 217 291 267 281 275 266 275 282 284 290 307 310 306 303 301 308 311 327 352 338 231 229 159 155 159 159 159 157 156 162 165 166 176 184 188 186 188 186
215 229 243 223 235 274 284 278 288 276 289 284 280 281 284 293 305 298 299 299 290 299 309 322 348 311 245 199 190 165 165 163 157 154 161 167 179 178 181 186 186 184 185 186
344 284 333 316 284 281 293 261 281 282 288 293 283 282 287 296 293 293 295 295 297 299 308 319 333 261 226 252 192 170 164 160 159 161 163 169 175 181 181 179 181 183 184 187
259 288 323 315 310 300 295 278 284 296 303 303 287 287 285 287 287 289 290 290 296 303 299 310 321 309 226 168 176 165 164 159 160 160 160 159 164 165 171 177 190 191 193 194
279 291 280 277 292 293 304 302 303 298 296 286 296 300 294 287 285 285 284 287 288 287 286 303 321 250 117 161 166 161 156 155 153 151 155 153 149 147 151 156 168 187 196 189
291 301 291 302 259 326 325 330 322 309 306 299 299 303 296 285 278 284 286 282 277 280 281 299 308 194 223 169 165 163 160 158 156 157 153 157 158 157 153 156 163 175 177 179
304 286 294 273 317 331 333 328 335 327 318 314 308 306 318 281 273 276 286 285 280 277 280 290 245 206 179 177 168 164 159 165 162 163 170 167 172 176 171 166 165 164 167 171
304 285 303 330 336 351 340 334 336 330 332 326 325 332 349 347 310 283 279 283 279 270 248 212 183 214 158 177 169 159 155 163 170 172 172 168 171 174 175 173 173 168 165 172
307 317 333 343 349 345 349 342 341 334 336 337 331 349 352 1 81 154 208 255 222 186 187 191 198 194 161 179 172 156 160 171 175 173 173 171 162 169 172 174 172 170 174 177
314 341 348 354 356 349 340 344 340 333 334 338 341 354 4 23 81 108 109 107 110 119 157 162 176 184 202 186 173 162 166 173 173 179 178 172 169 161 164 167 169 165 159 157
359 12 13 358 354 353 357 348 350 346 347 352 356 3 27 45 57 82 104 112 96 92 123 178 205 217 200 193 175 170 171 181 177 179 186 184 182 169 157 162 161 155 146 139
23 15 1 0 2 3 1 353 357 7 10 19 32 33 32 61 77 86 103 121 104 86 91 129 164 179 174 181 179 173 174 180 179 196 202 198 191 186 162 160 161 157 151 148
27 14 8 7 13 13 18 11 15 24 32 43 63 65 77 77 87 93 102 106 97 77 85 108 165 161 166 179 177 175 182 179 188 178 178 192 200 193 176 170 160 156 156 160
20 25 22 17 24 24 33 31 32 45 48 58 65 68 69 77 84 101 102 107 113 124 125 138 65 91 137 160 168 167 174 176 182 175 172 183 188 186 179 170 159 162 168 166
14 26 33 32 36 40 42 46 50 56 59 63 62 70 78 79 82 88 100 97 104 129 136 149 47 57 73 116 146 154 157 159 162 161 165 170 178 177 179 174 168 170 174 175
10 31 43 44 44 52 52 52 54 57 56 56 58 64 69 71 78 83 82 80 97 109 121 155 132 93 46 105 117 129 138 142 143 145 156 160 171 180 175 173 173 174 175 174
338 42 48 51 47 55 58 58 60 60 66 66 68 70 75 75 79 80 83 88 91 99 107 113 126 131 128 117 127 134 126 136 143 146 154 158 162 167 166 164 163 168 168 162
22 40 60 53 49 53 55 53 64 72 71 73 74 71 73 77 78 81 85 87 90 94 96 106 110 110 106 108 115 130 138 140 141 144 149 151 150 151 152 154 152 148 146 147
131 69 48 72 75 67 63 62 66 68 72 77 77 76 78 81 82 86 89 91 92 96 95 94 94 100 102 102 102 102 108 125 134 136 137 138 138 136 135 133 135 133 130 126
4 184 116 80 95 88 80 73 77 70 61 70 76 69 73 85 91 95 94 92 93 94 95 97 98 98 99 100 100 102 104 105 107 111 113 115 120 118 116 117 115 119 117 113